Wind_Speed
105 105 105 105 104 104 104 104 104 103 103 103 103 103 103 103 103 102 102 101 100 99 99 98 98 98 97 96 96 95 94 93 92 91 89 88 87 86 85 84 84 82 81 80 79 77 75 74 72 71 71 70 71 71 72 73 74 75 76 76 77 78 78 79 80 81 82 83 84 84 85 85 86 86 86 86 85 85 84 83 82 80 78 75 72 69
105 105 105 105 105 104 104 104 104 104 104 104 104 104 104 103 103 102 101 101 100 99 98 97 96 96 95 94 93 93 92 91 90 90 89 88 87 87 86 85 84 83 82 80 79 77 76 75 74 73 73 73 73 73 74 75 76 77 78 79 79 80 81 82 82 83 84 85 86 86 87 87 87 88 87 87 87 86 85 84 82 80 78 75 72 69
105 105 105 105 105 104 104 104 105 104 104 104 104 104 103 103 102 102 101 100 99 98 97 96 95 94 93 92 92 91 90 90 90 89 89 89 88 87 86 85 84 83 82 81 80 78 77 76 76 75 75 75 76 76 77 77 78 79 80 81 82 83 83 84 85 86 86 87 88 88 89 89 89 89 89 89 88 87 86 84 82 80 78 75 73 70
106 105 105 105 104 104 104 104 104 104 104 104 103 103 102 102 101 101 100 99 98 97 97 96 95 94 93 92 91 91 91 91 91 91 90 89 88 86 85 84 83 82 82 81 80 80 79 79 78 78 79 79 79 79 80 80 81 82 82 83 84 85 86 87 87 88 88 89 89 90 90 90 91 91 90 90 89 88 86 84 82 80 78 75 73 71
107 106 105 105 104 104 104 104 104 104 103 103 103 102 102 101 100 100 99 99 98 97 97 96 95 94 93 93 92 92 92 92 91 90 88 87 85 84 83 82 82 82 82 82 82 82 81 81 82 82 82 82 83 83 83 83 84 85 85 86 87 88 88 89 90 90 91 91 91 92 92 92 92 92 91 91 89 88 86 84 82 80 77 75 73 71
106 106 105 105 104 104 104 104 104 103 103 103 102 102 101 100 100 99 99 98 98 97 96 96 95 94 93 93 92 92 91 90 88 86 84 83 82 81 81 81 82 82 83 83 84 84 84 85 85 85 86 86 86 86 86 86 87 87 88 89 89 90 91 91 92 92 93 93 93 93 93 93 93 93 92 91 90 88 86 84 82 79 78 76 74 72
106 105 105 104 104 104 104 103 103 103 102 102 101 101 100 100 99 98 98 97 97 96 96 95 94 93 92 92 91 90 88 86 83 82 81 81 81 81 81 82 83 84 84 85 86 86 87 87 88 88 88 89 89 89 89 89 90 90 91 91 92 93 93 94 94 95 95 95 95 95 95 94 94 93 92 91 89 88 86 84 82 80 78 76 75 73
105 105 105 104 104 103 103 103 102 102 101 101 100 100 99 99 98 98 97 96 95 95 94 93 93 92 91 89 88 86 84 82 81 80 80 80 81 82 83 84 85 85 86 87 87 88 88 89 90 90 91 91 91 92 92 92 92 93 93 94 95 95 96 96 96 97 97 97 97 96 96 95 94 93 92 90 89 87 85 83 81 80 78 77 76 75
104 104 104 103 103 102 102 102 101 101 100 100 99 98 98 97 97 96 96 95 94 94 93 92 91 90 89 88 86 84 83 81 81 81 81 81 82 83 84 85 86 86 87 88 88 89 90 91 91 92 93 93 94 94 94 95 95 95 96 96 97 97 98 98 98 98 98 98 98 97 96 95 94 93 91 89 88 86 85 83 82 80 79 78 77 76
104 103 103 103 102 101 100 100 100 100 100 99 98 98 97 96 96 96 95 95 94 94 93 91 90 89 87 86 85 84 83 82 82 82 82 83 84 84 85 86 87 88 88 89 90 91 92 93 93 94 94 95 96 96 97 97 97 98 98 98 98 99 99 100 100 100 100 99 99 98 97 95 93 92 90 88 87 86 84 83 82 81 80 79 79 78
104 103 103 102 102 101 100 100 100 100 99 99 98 98 97 97 96 95 95 95 94 93 92 90 89 87 86 85 85 85 84 84 84 84 84 85 85 86 86 87 88 89 90 91 92 93 94 95 96 96 97 98 98 99 99 100 100 100 100 100 100 100 100 101 101 101 100 100 99 97 96 94 93 91 89 88 86 85 85 84 83 82 81 81 80 79
103 103 102 102 102 101 101 100 100 100 99 98 98 98 98 97 96 95 94 93 93 92 91 89 88 87 86 85 86 86 85 85 86 86 86 87 87 88 89 90 91 92 93 94 95 96 97 98 98 99 99 100 100 101 101 102 102 102 102 102 101 101 101 101 101 101 100 99 98 96 95 93 92 90 89 88 87 86 85 84 84 83 83 82 82 81
103 102 101 101 101 100 100 99 99 98 98 97 97 97 97 97 95 94 92 91 91 90 89 88 88 87 87 87 87 87 87 87 88 88 89 89 90 91 91 92 93 94 95 96 97 98 99 100 101 101 102 102 102 103 103 104 104 104 104 103 103 102 101 101 100 100 99 98 97 95 94 93 91 90 89 88 87 87 86 86 85 85 84 84 84 83
102 101 100 99 99 99 98 97 97 97 96 96 96 96 95 95 94 93 92 91 90 90 89 88 88 88 89 89 89 90 90 90 91 91 92 92 93 94 94 95 96 97 98 98 100 100 101 102 103 103 104 104 104 105 105 105 105 105 105 104 103 102 101 100 99 98 97 96 96 95 94 93 92 91 90 89 89 88 88 87 87 86 86 86 85 84
100 99 99 98 98 97 97 96 96 96 96 96 96 95 95 94 94 93 93 92 92 92 91 91 91 91 92 92 93 93 93 93 94 94 95 95 96 96 97 98 98 99 100 101 102 102 103 104 104 105 105 106 106 106 106 106 106 106 105 105 104 102 101 99 98 97 96 96 95 94 94 93 93 92 91 91 90 90 89 89 88 88 87 87 86 86
99 98 98 97 97 97 97 97 96 96 97 97 97 96 96 96 96 96 95 95 95 95 94 94 94 95 95 96 96 96 96 97 97 97 98 98 99 99 99 100 101 101 102 102 103 104 104 105 105 106 106 107 106 106 106 106 106 105 105 104 103 102 101 100 98 97 96 95 95 95 94 94 94 93 93 92 92 91 91 91 90 89 89 88 88 87
99 98 98 98 98 98 98 98 98 98 99 99 99 99 99 99 99 99 99 98 98 98 98 98 98 98 99 99 99 99 99 99 100 100 100 101 101 101 101 102 102 103 103 103 104 104 105 105 106 106 106 106 106 106 106 105 105 104 104 104 103 102 101 101 99 98 97 96 96 95 95 95 95 95 94 94 93 93 92 92 92 91 91 90 90 89
99 99 99 99 99 100 100 100 100 101 101 101 101 101 101 101 101 101 101 101 101 101 101 101 100 100 101 101 102 101 101 101 101 102 101 102 102 102 101 102 102 103 103 103 104 104 104 105 105 105 105 105 105 105 104 104 104 104 103 103 103 103 102 102 101 100 99 98 97 97 97 96 96 96 96 96 95 94 94 94 93 93 92 92 91 90
100 100 100 100 101 101 101 102 102 102 102 103 103 103 103 103 103 103 103 102 102 102 102 101 101 101 101 101 102 102 101 101 102 102 102 102 102 101 101 101 102 102 102 102 102 103 103 103 103 103 103 103 103 104 104 104 104 103 104 104 103 104 104 103 103 102 102 101 100 99 98 98 98 98 97 97 97 96 96 95 95 94 94 94 93 92
102 102 102 102 102 103 103 103 103 103 103 103 103 103 103 103 103 103 103 103 102 102 101 101 101 101 101 101 101 101 101 101 102 102 102 102 101 101 101 101 102 102 102 102 102 102 103 103 103 103 103 103 103 103 104 104 104 104 104 104 104 105 105 105 105 105 104 103 102 101 100 99 99 99 99 99 98 98 97 97 96 96 96 95 95 94
103 103 103 103 103 103 103 104 104 104 103 103 103 103 103 103 103 103 103 103 103 102 102 102 102 102 101 101 102 102 102 102 103 103 103 102 102 102 102 102 102 103 103 103 103 103 103 104 104 104 104 104 104 104 104 105 105 105 105 105 105 105 106 106 106 106 106 106 105 104 103 102 101 101 100 100 100 100 99 99 99 98 98 98 97 96
103 103 103 103 103 103 103 103 103 103 103 103 103 104 104 104 104 104 104 104 104 104 104 103 103 103 102 103 103 103 103 103 104 104 104 104 104 103 103 103 104 104 105 105 105 105 105 105 105 105 105 105 105 106 106 106 106 106 106 107 107 107 107 107 107 107 107 107 107 106 105 104 103 103 102 102 102 102 102 101 101 101 100 100 99 99
102 102 102 102 102 102 102 103 103 103 104 104 104 105 105 105 105 105 105 105 105 105 105 105 104 104 104 104 105 105 105 105 106 106 105 105 106 106 105 105 106 107 107 107 107 107 107 107 107 107 107 107 107 107 108 108 108 108 108 108 108 108 108 108 108 108 109 109 109 108 108 107 106 105 105 104 104 104 104 104 103 103 103 102 101 101
102 102 102 102 102 102 103 103 104 104 105 105 106 106 106 106 106 106 106 106 106 106 106 106 106 106 106 106 107 107 108 108 108 108 108 108 108 108 107 107 108 109 110 110 109 109 109 109 109 109 108 108 109 109 109 109 110 110 110 109 109 109 109 109 109 109 110 110 110 110 110 109 109 108 107 107 106 106 106 106 106 105 105 104 104 103
102 102 102 102 103 103 104 104 105 106 106 107 107 108 108 107 107 107 107 107 108 108 108 108 108 109 109 109 109 110 110 110 110 110 110 110 110 110 109 109 110 111 112 112 111 111 111 111 111 110 110 110 110 111 111 111 111 111 111 111 111 111 111 110 110 110 110 111 111 111 111 111 111 110 110 109 108 108 108 108 108 108 107 107 106 105
103 103 103 104 104 104 105 106 106 107 108 108 109 109 109 109 109 109 109 110 110 110 110 110 111 111 111 111 111 112 113 113 113 112 113 113 113 112 112 112 112 113 113 113 113 112 112 112 112 112 112 112 112 112 113 113 113 113 113 113 113 113 113 112 112 112 112 112 112 112 113 113 113 113 112 111 111 110 110 110 110 109 109 109 108 108
104 104 105 105 105 106 106 107 108 109 109 110 111 111 111 111 111 111 112 112 112 112 112 113 113 113 113 113 113 114 115 115 115 115 115 115 115 115 115 114 114 114 115 115 114 114 114 114 114 114 113 113 114 114 114 114 114 114 114 114 115 115 114 114 114 113 113 113 113 113 114 114 114 114 114 113 113 112 112 112 111 111 111 111 110 110
105 106 106 106 106 107 108 109 110 111 112 112 113 113 113 113 113 114 115 114 114 114 114 115 115 115 115 115 115 116 116 116 117 117 117 117 117 118 118 117 116 116 116 116 116 115 115 115 115 115 115 115 115 116 116 116 116 116 115 115 116 116 116 116 116 116 115 115 114 114 115 115 115 116 116 115 115 114 114 113 113 113 113 112 112 111
107 108 108 108 109 109 110 111 112 113 114 115 115 116 116 116 116 116 116 116 115 116 116 117 116 116 116 116 117 117 117 118 118 118 118 119 120 120 119 118 117 117 118 118 117 117 116 116 116 116 116 116 116 117 117 117 117 116 116 116 117 117 117 118 118 117 117 117 116 116 116 116 116 117 117 117 117 116 116 115 114 114 114 113 113 112
110 110 110 111 111 112 112 113 114 115 116 117 117 118 118 118 118 118 117 117 117 117 117 118 118 117 117 117 117 118 118 119 119 119 119 120 121 121 120 119 119 118 119 118 118 118 117 117 116 116 116 117 117 118 118 117 117 117 117 117 117 118 118 119 119 119 118 118 117 117 117 117 117 117 117 118 118 117 117 116 116 115 114 114 113 113
112 113 113 114 114 114 115 116 116 117 118 119 120 120 121 121 121 120 119 119 119 118 119 119 119 118 118 118 118 119 119 119 119 119 120 121 122 122 121 120 119 119 119 118 118 119 118 117 116 115 115 116 117 118 118 117 117 117 117 118 118 119 119 119 119 119 119 118 118 118 117 117 117 117 117 117 117 117 117 117 116 115 115 114 113 113
114 115 115 116 117 117 118 118 119 119 120 120 121 122 122 123 123 122 122 121 121 120 120 120 120 119 119 118 118 119 119 120 119 119 120 121 122 122 121 120 119 119 118 118 117 118 118 117 116 114 114 115 117 117 117 117 117 117 117 118 118 119 119 119 119 118 118 118 118 117 117 116 116 116 116 116 116 117 116 116 116 115 114 113 113 112
116 116 117 118 119 119 120 120 121 121 122 122 123 123 124 124 124 124 124 123 123 122 122 122 121 121 120 119 119 119 119 119 119 119 120 121 122 121 120 119 119 118 118 117 116 115 115 115 115 114 113 114 115 116 116 116 116 116 116 117 118 118 117 117 117 116 116 116 116 115 115 115 115 114 114 114 115 115 115 115 114 114 113 112 112 111
117 118 119 120 120 121 121 122 122 123 123 123 124 124 125 125 125 125 125 124 124 123 123 123 122 122 121 120 119 119 119 119 119 119 119 120 121 121 119 118 117 117 116 116 115 113 113 112 112 112 112 112 112 113 114 115 115 115 115 115 116 116 115 114 114 113 113 113 113 113 113 112 112 112 112 112 112 112 112 112 112 111 111 110 109 109
119 120 120 121 122 122 123 123 123 124 124 124 125 125 125 126 126 125 125 125 124 124 123 123 122 122 121 121 120 120 119 119 118 118 118 119 119 119 118 117 115 114 114 113 112 111 111 109 108 108 108 109 109 110 111 112 113 113 113 113 112 112 112 111 110 110 110 110 110 109 109 109 109 109 109 109 109 109 109 109 109 109 108 107 107 106
121 121 122 123 123 124 124 124 124 125 125 125 125 125 125 125 125 125 125 124 124 123 123 122 121 120 120 119 119 119 119 118 117 117 117 117 117 116 116 114 113 111 111 110 109 109 108 106 105 104 104 105 106 107 107 108 109 109 110 109 109 108 108 107 106 106 106 106 106 106 106 105 105 105 105 106 106 106 106 106 106 105 105 104 104 103
122 123 123 124 124 124 125 125 125 125 125 125 125 125 124 124 124 124 123 123 122 122 121 120 119 118 118 117 117 117 117 116 116 116 115 115 114 113 113 111 109 108 107 107 106 105 104 103 101 100 100 101 102 103 103 104 105 105 106 105 105 104 104 103 102 102 102 102 102 102 101 101 101 101 101 102 102 102 102 102 102 102 102 101 101 100
123 124 124 124 124 124 124 124 124 124 124 124 123 123 122 122 122 121 121 120 120 119 119 118 117 116 115 115 114 114 114 114 113 113 113 112 110 109 108 107 105 104 103 102 101 101 100 99 98 97 97 97 97 98 99 99 100 101 101 101 100 100 100 99 99 98 98 97 97 97 97 97 97 97 97 97 97 98 98 98 98 98 98 98 97 97
123 123 123 123 123 123 123 122 122 122 121 121 121 120 120 119 119 118 118 117 117 116 116 115 114 113 113 112 111 111 110 110 109 109 108 107 106 105 104 102 101 100 99 98 97 96 95 94 94 93 93 93 93 93 94 94 95 96 96 96 96 96 95 95 94 94 93 93 93 92 92 92 92 92 93 93 93 93 94 94 95 95 95 94 94 94
122 121 121 121 121 120 120 120 119 119 118 118 117 117 116 116 115 115 114 113 113 112 112 111 110 110 109 108 108 107 106 106 105 104 103 102 101 100 99 98 97 96 95 94 92 91 91 90 89 89 88 88 89 89 89 90 90 91 91 91 92 92 91 91 90 90 89 88 88 88 88 88 88 88 88 89 89 89 90 90 91 91 91 91 91 91
119 119 118 118 117 117 117 116 116 115 115 114 114 113 113 112 111 111 110 109 108 108 107 106 106 105 104 104 103 102 102 101 100 99 98 97 96 95 94 93 92 91 90 89 88 87 86 86 85 85 84 84 85 85 85 86 86 86 87 87 88 88 87 87 86 85 85 84 84 84 84 84 84 84 85 85 85 85 86 86 87 87 87 87 87 87
116 115 115 114 114 114 113 112 112 111 111 110 110 109 108 108 107 106 105 105 104 103 102 101 101 100 100 99 99 98 97 96 95 94 93 92 92 91 90 89 88 87 86 85 84 83 82 82 81 81 81 81 81 81 81 82 82 83 83 84 84 84 84 83 83 82 81 80 80 80 80 81 81 81 81 81 82 82 82 82 83 83 83 83 83 83
112 112 111 111 110 110 109 109 108 107 106 106 105 104 103 102 102 101 100 100 99 99 98 97 96 96 95 95 94 94 93 91 91 90 89 88 87 87 86 85 84 83 82 81 80 80 79 78 78 78 77 77 77 77 78 79 79 80 80 80 80 80 81 80 79 78 77 77 77 77 77 78 78 78 78 78 78 79 79 79 79 80 80 80 80 80
108 108 107 107 106 105 105 104 103 103 102 101 100 99 99 98 97 96 96 95 95 94 94 93 92 92 91 91 91 90 89 88 87 86 85 84 83 83 82 81 80 79 78 77 77 76 75 75 74 74 74 74 74 74 75 76 76 77 77 77 77 77 77 77 76 75 74 74 74 74 75 75 75 75 75 75 75 76 76 76 76 76 77 77 76 76
104 104 103 102 102 101 100 99 99 98 97 96 96 95 94 93 92 92 91 91 91 90 90 89 89 88 88 87 87 86 85 84 83 82 81 80 80 79 78 77 76 75 74 73 73 72 72 72 71 71 70 70 71 71 72 73 74 74 74 74 74 74 74 73 73 73 72 71 71 71 72 72 72 72 72 73 73 73 73 73 74 74 74 74 73 74
100 99 98 98 97 96 96 95 94 94 93 92 91 91 90 89 88 88 87 87 87 86 86 85 85 85 84 84 83 82 81 81 80 79 78 77 76 75 74 73 73 72 71 70 69 69 69 68 68 68 68 68 68 69 70 70 71 72 72 72 71 71 71 71 71 70 70 69 69 69 69 69 69 70 70 70 70 71 71 71 71 71 71 71 71 71
95 94 94 93 93 92 92 91 90 90 89 88 87 87 86 85 84 84 84 83 83 83 82 82 81 81 81 80 79 79 78 77 76 75 74 73 72 72 71 70 69 68 68 67 66 66 65 65 65 65 65 65 66 66 67 68 68 69 69 69 69 68 68 68 68 68 68 67 67 66 66 66 67 67 67 68 68 68 69 69 69 69 68 68 68 69
91 90 90 89 89 88 88 87 86 86 85 84 84 83 82 81 81 80 80 80 79 79 79 78 78 77 77 76 76 75 75 74 73 72 71 70 69 68 67 67 66 65 64 64 63 63 63 62 62 62 63 63 64 64 65 65 66 67 67 67 66 66 66 66 66 66 65 65 64 64 64 64 64 65 65 66 66 66 66 66 66 66 66 66 66 66
87 86 86 85 85 84 84 83 83 82 81 81 80 79 78 78 77 77 77 76 76 75 75 75 74 74 73 73 72 72 71 71 70 69 68 67 66 65 64 63 63 62 61 61 60 60 60 60 60 60 60 61 61 62 62 63 63 64 64 64 64 64 64 64 64 63 63 62 62 61 61 61 62 62 63 64 64 65 65 64 64 64 64 64 64 65
83 82 82 82 81 81 80 79 79 78 78 77 76 76 75 74 74 73 73 73 72 72 72 71 71 70 70 69 69 68 68 67 67 66 65 64 63 62 61 61 60 59 59 58 58 58 58 58 58 58 58 58 59 59 59 60 60 61 62 62 62 62 62 61 61 61 60 60 59 59 59 59 59 60 61 62 63 63 63 62 62 62 62 62 62 63
79 79 79 78 78 77 77 76 75 75 74 74 73 72 72 71 70 70 70 69 69 69 68 68 67 67 67 66 65 65 64 64 63 63 62 61 60 59 59 58 57 56 56 55 55 55 55 55 55 55 55 55 56 56 56 57 57 58 59 59 59 60 59 59 59 58 58 57 57 56 56 57 58 59 60 60 61 61 61 60 60 60 60 60 61 61
Wind_Direction
283 283 283 283 283 283 283 283 283 283 283 283 283 283 283 283 283 283 283 283 283 283 283 283 283 283 283 283 283 283 283 283 283 282 282 282 281 281 280 280 279 278 278 278 278 278 279 279 280 281 281 282 282 283 283 284 284 284 285 285 286 286 286 287 287 288 288 289 290 290 291 291 292 292 292 293 293 294 294 294 295 295 295 295 295 295
283 283 283 283 283 283 283 283 283 283 283 283 283 283 283 283 283 283 283 283 283 282 282 282 282 282 282 282 282 282 281 281 281 281 281 280 280 279 279 279 278 278 279 279 280 280 281 281 282 282 282 283 283 283 283 284 284 284 285 285 286 286 286 287 287 288 288 289 289 290 290 291 291 292 292 292 293 293 294 294 294 294 294 294 294 294
283 282 282 282 282 282 282 282 282 282 283 283 283 283 283 283 283 283 282 282 282 282 282 281 281 281 281 280 280 280 279 279 279 279 279 279 279 279 279 279 280 280 281 282 282 283 283 283 283 283 283 283 283 284 284 284 284 285 285 285 285 286 286 287 287 287 288 288 289 289 290 290 291 291 292 292 292 293 293 293 293 294 293 293 293 293
283 282 282 282 282 282 282 282 282 282 282 282 282 282 282 282 282 282 282 282 282 281 281 281 280 280 279 279 279 278 278 278 278 279 279 279 279 280 280 281 282 282 283 283 284 284 284 284 284 284 284 284 284 284 284 284 284 285 285 285 285 286 286 286 287 287 288 288 288 289 289 290 290 291 291 292 292 292 292 292 293 293 292 292 292 292
283 283 283 283 282 282 282 282 282 282 282 282 282 282 282 282 282 282 282 281 281 281 281 280 280 280 279 279 279 279 279 279 279 279 280 280 281 281 282 282 283 283 283 283 284 284 284 284 284 284 284 284 284 284 284 284 284 285 285 285 285 285 286 286 286 287 287 288 288 288 289 289 290 290 291 291 291 291 291 291 291 291 291 291 291 291
283 283 283 283 282 282 282 282 282 282 282 282 282 282 282 282 282 282 281 281 281 281 281 281 281 280 280 280 280 280 280 280 281 281 281 281 281 282 282 282 282 282 282 282 282 282 282 283 283 283 283 283 283 283 284 284 284 284 284 284 285 285 285 286 286 286 287 287 288 288 288 289 289 290 290 290 290 290 290 290 290 290 290 290 290 290
283 283 283 283 282 282 282 282 282 282 282 282 282 282 282 282 282 282 282 281 281 281 281 281 281 281 281 281 281 281 281 281 281 281 281 281 281 281 280 280 280 280 280 280 280 281 281 281 281 282 282 282 282 283 283 283 283 283 284 284 284 285 285 285 286 286 286 287 287 287 288 288 288 289 289 289 289 289 289 289 289 289 289 289 289 289
282 283 283 282 282 283 283 283 283 282 282 282 282 282 282 282 282 282 281 281 281 281 281 281 281 281 281 281 281 281 281 281 281 280 280 279 279 279 278 278 278 278 279 279 279 279 280 280 280 281 281 281 281 282 282 282 283 283 283 283 284 284 284 285 285 286 286 286 287 287 287 287 288 288 288 288 288 288 288 288 288 288 288 288 288 288
282 282 282 282 282 282 282 282 282 282 282 282 282 282 281 281 281 281 280 280 280 280 280 280 280 280 281 281 281 281 280 280 279 279 278 278 277 277 277 277 277 278 278 278 278 279 279 279 279 280 280 280 281 281 281 282 282 282 282 283 283 283 284 284 285 285 285 286 286 286 286 287 287 287 287 287 287 287 287 287 287 287 287 287 288 288
282 282 282 282 282 282 281 281 281 281 281 281 280 280 280 280 280 280 280 280 280 280 280 280 280 281 281 281 281 280 280 279 279 278 278 277 277 277 277 277 277 278 278 278 278 278 278 279 279 279 279 280 280 280 281 281 281 281 282 282 282 282 283 283 284 284 284 285 285 285 285 286 286 286 286 286 286 286 286 286 286 286 287 287 287 287
282 282 282 281 281 281 281 280 280 280 280 280 280 280 279 279 279 280 280 280 281 281 281 281 281 281 281 281 281 280 280 279 279 278 278 278 277 277 277 277 277 277 278 278 278 278 278 278 278 279 279 279 279 280 280 280 280 281 281 281 281 282 282 282 283 283 284 284 284 284 284 284 284 284 284 284 285 285 285 285 285 286 286 286 286 286
282 282 282 281 281 281 281 281 281 280 280 280 280 280 280 281 281 281 281 281 281 282 282 282 282 281 281 280 280 280 279 279 278 278 278 278 277 277 277 277 277 277 277 277 277 277 278 278 278 278 278 278 279 279 279 280 280 280 280 281 281 281 281 282 282 283 283 283 283 283 283 283 283 283 283 284 284 284 284 284 284 285 285 285 285 285
281 281 281 281 281 281 281 281 281 281 281 281 281 281 281 282 282 282 282 281 281 281 281 281 281 280 280 279 279 278 278 277 277 277 277 276 276 276 276 275 275 275 276 276 276 276 277 277 277 278 278 278 278 279 279 279 279 280 280 280 281 281 281 281 282 282 282 282 282 282 282 282 283 283 283 283 283 283 283 283 283 284 284 284 284 284
281 281 281 281 281 281 281 281 281 281 281 281 281 282 282 282 282 282 281 280 280 280 279 279 278 278 278 277 277 276 276 276 275 275 275 275 275 274 274 274 274 274 275 275 275 275 276 276 277 277 277 278 278 278 279 279 279 280 280 280 281 281 281 281 281 281 281 281 281 282 282 282 282 282 282 282 282 282 282 282 283 283 283 283 283 283
280 280 280 280 280 280 280 280 280 280 281 281 281 281 281 281 280 280 279 279 279 278 278 277 277 276 276 276 276 275 275 275 274 274 274 274 274 274 274 274 274 274 274 274 274 275 275 276 276 277 277 277 278 278 279 279 279 280 280 280 281 281 281 280 280 280 280 280 280 281 281 281 281 281 281 281 281 281 282 282 282 282 282 282 282 282
280 280 280 280 280 280 280 280 280 280 280 280 280 280 280 279 279 279 279 278 278 278 277 277 276 276 276 276 276 275 275 275 274 274 274 274 274 274 274 274 274 274 274 274 275 275 275 276 276 277 277 277 278 278 279 279 279 280 280 280 280 280 280 280 280 280 279 279 279 280 280 280 280 280 280 280 280 280 281 281 281 281 281 281 281 281
279 279 279 280 280 280 280 280 280 280 280 280 280 279 279 279 279 279 279 278 278 278 278 277 277 277 276 277 276 276 276 275 275 275 275 275 275 275 275 275 275 275 275 275 275 275 276 276 276 277 277 277 278 278 278 279 279 279 279 279 280 280 280 280 279 279 279 279 279 279 279 279 279 279 279 279 279 280 280 280 280 280 280 280 280 280
279 279 280 280 280 280 280 280 280 280 280 280 280 279 279 279 279 279 279 279 279 278 278 278 278 277 277 277 277 277 277 276 276 276 276 276 276 276 276 276 275 275 276 276 276 276 276 276 276 276 277 277 277 278 278 278 278 278 279 279 279 279 279 279 279 279 278 278 278 278 278 278 278 278 279 279 279 279 279 279 279 279 279 279 279 279
280 280 280 280 280 280 280 280 280 280 280 280 280 280 280 280 280 279 279 279 279 279 279 278 278 278 278 277 277 278 278 277 277 277 277 276 276 276 276 276 276 276 276 276 276 276 276 276 276 276 276 276 277 277 277 277 277 277 278 278 278 278 278 278 278 278 278 278 278 278 277 277 277 278 278 278 278 278 278 278 278 278 278 278 278 278
280 280 280 280 280 280 280 280 280 280 280 280 280 280 280 280 280 280 279 279 279 279 279 279 278 278 278 278 278 278 278 278 277 277 277 277 277 277 277 277 276 276 276 276 276 276 276 276 276 276 276 276 276 276 276 276 276 276 276 277 277 277 277 277 278 278 278 278 278 278 277 277 277 277 277 277 277 278 278 277 278 277 278 277 277 277
280 280 280 281 280 280 280 280 280 280 280 280 280 280 280 280 280 279 279 279 279 279 279 279 279 279 278 278 278 278 278 278 277 277 277 277 277 277 277 277 277 276 276 276 276 276 276 275 275 275 275 275 275 275 275 275 275 275 275 276 276 276 276 277 277 277 277 277 278 277 277 277 277 277 277 277 277 277 277 277 277 277 277 277 277 277
280 280 281 281 281 281 281 281 281 281 280 280 280 280 280 280 279 279 279 279 279 279 279 279 279 279 279 279 278 278 278 278 277 277 278 278 278 277 277 277 277 277 276 276 276 276 275 275 275 275 275 275 275 275 275 275 275 275 275 275 275 275 275 276 276 276 277 277 277 277 277 277 277 277 276 276 276 276 276 276 276 276 276 276 276 276
280 280 280 281 281 280 280 280 280 280 280 280 280 279 279 279 279 279 279 279 279 279 279 279 279 279 279 279 279 278 278 278 278 278 278 278 278 277 277 277 277 277 276 276 276 276 275 275 275 275 275 275 275 275 275 275 275 275 275 275 275 275 275 275 275 275 276 276 276 276 276 276 276 276 276 276 276 276 276 276 275 275 275 275 275 275
280 280 280 280 280 280 280 280 280 280 280 279 279 279 279 279 279 279 279 279 279 280 280 280 280 280 279 279 279 279 279 278 278 278 278 278 278 278 277 277 277 277 276 276 276 276 276 276 276 276 275 275 275 275 275 275 275 275 274 274 274 274 274 274 274 274 274 275 275 275 275 275 275 275 275 275 275 275 275 275 274 274 274 274 274 274
280 280 280 280 280 280 280 280 279 279 279 279 279 279 279 280 280 280 280 280 280 280 280 280 280 280 280 280 280 280 279 279 279 279 279 278 278 278 278 277 277 277 277 276 276 276 276 276 276 276 276 276 275 275 275 275 275 275 274 274 274 274 273 273 273 273 273 273 273 274 274 274 274 274 274 274 274 274 273 273 273 273 273 273 273 273
280 280 280 280 280 280 280 280 280 280 280 280 280 280 280 280 281 281 281 281 280 280 280 281 280 280 280 280 280 280 280 280 279 279 279 279 279 279 278 277 277 277 277 277 276 276 276 276 276 276 276 276 275 275 275 275 274 274 274 274 274 273 273 273 273 272 272 272 272 272 272 273 273 273 273 272 272 272 272 272 272 272 272 272 272 272
281 281 281 281 281 281 281 281 281 281 281 281 281 281 281 281 281 281 281 281 281 281 281 281 281 281 281 281 280 280 280 280 280 280 279 279 279 279 278 278 277 277 277 277 277 276 276 276 276 276 275 275 275 275 274 274 274 274 274 273 273 273 273 273 272 272 272 271 271 271 271 271 272 272 272 271 271 271 271 271 271 271 271 271 271 271
282 282 282 282 282 282 282 282 282 282 282 282 282 282 282 282 282 282 282 281 281 281 281 281 281 281 281 281 280 280 280 280 280 280 279 279 279 279 278 278 277 277 277 277 276 276 276 276 275 275 275 275 274 274 274 274 273 273 273 273 273 273 273 272 272 272 271 271 271 271 271 271 271 271 271 271 271 270 270 270 270 270 270 270 270 270
283 283 283 283 283 283 283 283 283 283 283 283 283 283 282 282 282 282 281 281 281 281 281 281 281 280 280 280 280 280 280 280 279 279 279 279 278 278 277 277 277 277 276 276 276 276 275 275 275 275 275 274 274 274 274 273 273 273 273 273 273 273 273 272 272 272 271 271 271 270 270 270 270 270 270 270 270 270 270 269 269 269 269 269 269 269
284 284 284 284 284 284 284 284 284 283 283 283 283 283 283 282 282 282 282 281 281 281 281 281 280 280 280 280 280 280 279 279 279 279 279 278 278 278 277 277 277 277 276 276 276 276 275 275 275 274 274 274 274 274 274 273 273 273 273 273 273 272 272 272 272 272 271 271 271 270 270 270 270 270 269 269 269 269 269 269 268 268 268 268 268 268
285 285 285 285 285 285 285 284 284 284 284 284 283 283 283 283 283 282 282 282 282 281 281 281 280 280 280 280 279 279 279 279 279 278 278 278 278 278 277 277 277 277 276 276 276 276 276 275 275 274 274 274 274 274 274 274 273 273 273 273 272 272 272 272 271 271 271 271 270 270 270 269 269 269 269 269 269 268 268 268 268 267 267 267 267 266
286 286 286 285 285 285 285 285 284 284 284 284 284 283 283 283 283 283 283 282 282 282 282 281 281 281 280 280 280 279 279 279 279 279 278 278 278 278 278 277 277 277 277 276 276 276 276 276 275 275 275 274 274 274 274 274 273 273 273 272 272 272 271 271 270 270 270 270 270 269 269 269 268 268 268 268 267 267 267 267 266 266 266 266 265 265
286 286 285 285 285 285 285 284 284 284 284 284 284 283 283 283 283 283 283 283 283 282 282 282 282 282 281 281 280 280 280 280 279 279 279 279 279 278 278 278 278 277 277 277 276 276 276 275 275 275 275 274 274 274 274 274 273 273 272 272 271 271 270 270 270 269 269 269 269 268 268 268 267 267 267 266 266 266 266 265 265 265 264 264 264 264
286 285 285 285 285 285 284 284 284 284 284 284 284 283 283 283 283 283 283 283 283 283 283 282 282 282 282 282 281 281 281 280 280 279 279 279 279 279 278 278 278 277 277 277 276 276 275 275 275 274 274 274 274 273 273 273 273 272 271 271 270 270 269 269 269 268 268 268 267 267 267 266 266 266 266 265 265 265 264 264 264 263 263 263 262 262
286 285 285 285 285 285 285 284 284 284 284 284 284 284 283 283 283 283 283 283 283 283 283 282 282 282 282 282 282 282 281 281 280 280 280 279 279 279 278 278 278 277 277 277 276 276 275 275 274 274 274 273 273 273 272 272 272 271 271 270 270 269 269 268 268 268 267 267 267 266 266 265 265 265 264 264 263 263 263 263 262 262 262 261 261 261
286 286 285 285 285 285 285 284 284 284 284 284 284 283 283 283 283 283 283 283 283 283 283 282 282 282 282 282 282 282 281 281 281 280 280 279 279 278 278 278 277 277 277 276 276 275 275 275 274 274 273 273 273 272 272 271 271 270 270 270 269 269 268 268 267 267 266 266 265 265 265 264 264 263 263 262 262 262 262 261 261 261 260 260 259 259
286 286 285 285 285 285 285 284 284 284 284 284 283 283 283 283 283 283 283 283 283 283 283 283 282 282 282 282 282 281 281 281 280 280 279 279 278 278 278 277 277 277 276 276 276 275 275 275 274 274 273 273 272 272 271 271 270 270 269 269 268 268 267 267 266 266 265 265 264 264 263 263 262 262 261 261 261 260 260 260 260 259 259 259 258 258
286 285 285 285 285 284 284 284 284 284 283 283 283 283 283 283 283 283 283 283 283 283 283 282 282 282 282 282 281 281 281 280 280 279 279 278 278 278 277 277 277 277 276 276 276 275 275 275 274 273 273 272 271 271 270 270 269 269 268 268 267 267 266 266 265 264 264 263 263 262 262 261 261 260 260 259 259 259 259 258 258 258 257 257 257 256
285 285 285 285 284 284 284 284 284 284 283 283 283 283 283 283 283 283 283 283 283 283 282 282 282 282 282 281 281 280 280 279 279 278 278 278 278 277 277 277 277 276 276 276 275 275 274 274 273 273 272 271 271 270 269 268 268 268 267 267 266 266 265 264 264 263 262 262 261 261 260 260 259 259 259 258 258 257 257 257 256 256 256 255 255 254
285 285 285 284 284 284 284 284 284 284 284 284 284 283 283 283 283 283 283 283 282 282 282 282 282 281 281 281 280 280 279 279 278 278 278 278 277 277 277 277 276 276 276 275 275 274 274 273 272 272 271 270 270 269 268 268 267 266 266 266 265 264 264 263 262 262 261 261 260 260 259 259 258 258 257 257 256 256 255 255 255 254 254 254 253 253
285 285 285 285 284 284 284 284 284 284 284 284 284 283 283 283 283 283 283 282 282 282 282 281 281 281 281 280 280 279 279 279 278 278 278 278 277 277 277 276 276 276 275 275 274 274 273 273 272 271 270 270 269 268 268 267 266 265 265 264 264 263 263 262 261 261 260 260 259 259 258 258 257 257 256 255 255 254 254 254 253 253 253 252 252 251
285 285 285 285 285 285 284 284 284 284 284 284 283 283 283 283 283 283 283 282 282 282 282 281 281 281 280 280 280 279 279 279 278 278 278 278 277 277 277 276 276 275 275 274 274 273 273 272 271 271 270 269 268 267 267 266 265 265 264 263 263 262 262 261 260 260 259 259 258 258 257 257 256 256 255 254 254 253 253 253 252 252 252 251 250 250
285 285 285 285 285 285 284 284 284 284 284 284 283 283 283 283 283 283 283 282 282 282 282 281 281 281 280 280 280 279 279 279 279 278 278 278 277 277 276 276 276 275 275 274 274 273 272 271 271 270 269 268 267 267 266 265 265 264 263 262 262 262 261 261 260 259 259 258 257 257 256 256 255 254 254 253 253 252 252 252 251 251 250 250 249 249
285 285 285 285 285 285 284 284 284 284 284 284 284 284 283 283 283 283 283 283 282 282 282 282 281 281 280 280 280 280 279 279 279 278 278 278 277 277 276 276 275 275 274 274 273 272 272 271 270 269 268 268 267 266 265 265 264 263 262 262 261 261 260 260 260 259 258 257 256 256 255 255 254 254 253 253 252 252 251 251 250 250 249 249 248 248
286 285 285 285 285 285 285 285 284 284 284 284 284 284 284 284 284 283 283 283 283 282 282 282 281 281 281 280 280 280 280 279 279 278 278 278 277 277 276 276 275 275 274 273 273 272 271 271 270 269 268 267 266 266 265 264 263 263 262 261 261 260 260 259 259 258 257 256 255 255 254 254 253 253 252 252 251 251 250 250 249 249 248 248 247 247
286 286 286 285 285 285 285 285 285 285 285 285 284 284 284 284 284 284 283 283 283 283 282 282 282 281 281 280 280 280 280 279 279 279 278 278 277 277 276 276 275 275 274 273 273 272 271 270 270 269 268 267 266 265 264 263 263 262 261 261 260 259 259 258 258 257 256 255 254 254 253 253 252 252 252 251 251 250 249 249 248 248 247 247 246 245
286 286 286 286 286 286 286 286 285 285 285 285 285 285 285 285 284 284 284 283 283 283 282 282 282 281 281 281 280 280 280 280 279 279 278 278 277 277 277 276 275 275 274 274 273 272 271 270 269 268 267 266 265 264 263 262 262 261 261 260 259 259 258 257 257 256 255 255 254 253 252 252 251 251 251 250 250 249 249 248 247 247 246 246 245 244
287 286 286 286 286 286 286 286 286 286 286 286 286 285 285 285 285 284 284 284 283 283 282 282 282 281 281 281 281 281 280 280 280 279 279 278 278 277 277 276 276 275 274 273 273 272 271 269 268 267 266 265 264 263 262 261 261 260 260 259 259 258 257 256 256 255 255 254 253 252 251 251 250 250 249 249 248 248 247 247 246 246 245 244 244 243
287 287 287 287 287 287 287 287 287 286 286 286 286 286 286 285 285 285 284 284 283 283 283 282 282 282 281 281 281 281 280 280 280 279 279 279 278 278 277 276 276 275 274 273 272 271 270 268 267 266 265 263 262 262 261 261 260 260 259 259 258 258 257 256 255 255 254 253 252 252 251 250 249 249 248 248 247 247 246 245 245 244 244 243 242 242
288 288 288 288 288 288 288 287 287 287 287 287 287 286 286 286 285 285 284 284 284 283 283 282 282 282 282 281 281 281 280 280 280 280 279 279 278 278 277 276 275 274 273 272 271 270 269 267 266 265 263 262 261 261 260 260 259 259 258 258 258 257 256 256 255 254 253 252 251 250 249 249 248 247 246 246 246 245 245 244 243 243 242 241 241 240
289 289 289 289 289 288 288 288 288 288 288 287 287 287 286 286 285 285 284 284 284 283 283 282 282 282 282 281 281 281 280 280 280 279 279 279 278 277 277 276 275 274 273 271 270 269 268 267 265 264 263 262 261 260 259 259 258 258 257 257 257 256 256 255 254 253 252 251 250 249 248 247 246 245 245 244 244 244 243 243 242 241 240 240 239 238
Height
10540 10538 10538 10536 10536 10534 10533 10532 10531 10531 10529 10528 10528 10527 10526 10525 10524 10523 10523 10521 10521 10519 10518 10516 10514 10513 10511 10509 10508 10507 10506 10505 10504 10504 10504 10504 10505 10505 10506 10506 10506 10506 10508 10508 10509 10509 10509 10509 10508 10508 10508 10508 10508 10508 10508 10508 10507 10507 10507 10507 10507 10508 10508 10508 10508 10507 10507 10506 10506 10506 10506 10506 10506 10505 10505 10504 10503 10503 10503 10503 10503 10503 10503 10503 10503 10503
10534 10532 10531 10529 10529 10527 10524 10524 10524 10523 10522 10521 10519 10519 10518 10517 10516 10514 10514 10514 10513 10512 10511 10510 10509 10507 10506 10504 10503 10501 10499 10499 10498 10498 10498 10498 10498 10498 10499 10499 10499 10499 10499 10499 10500 10501 10501 10501 10501 10501 10501 10501 10501 10501 10501 10501 10501 10501 10501 10501 10501 10501 10501 10501 10501 10501 10501 10499 10499 10499 10499 10499 10499 10498 10498 10498 10497 10496 10496 10496 10496 10496 10496 10496 10496 10497
10527 10525 10523 10522 10522 10521 10518 10517 10516 10515 10514 10514 10513 10511 10510 10509 10508 10507 10506 10506 10505 10504 10504 10503 10503 10501 10500 10498 10498 10496 10495 10494 10493 10493 10493 10492 10492 10492 10491 10491 10491 10491 10491 10491 10491 10491 10493 10493 10493 10493 10493 10493 10494 10494 10494 10494 10494 10494 10494 10494 10494 10494 10494 10494 10494 10494 10494 10493 10493 10493 10492 10492 10491 10491 10491 10491 10491 10491 10490 10490 10490 10490 10490 10491 10491 10491
10519 10518 10516 10515 10514 10514 10512 10510 10509 10508 10507 10506 10505 10504 10503 10502 10501 10499 10499 10498 10498 10497 10496 10496 10496 10495 10494 10493 10493 10492 10491 10490 10489 10488 10487 10486 10485 10484 10484 10483 10483 10483 10483 10483 10483 10483 10484 10484 10485 10485 10486 10486 10486 10486 10487 10487 10487 10487 10487 10487 10487 10487 10487 10487 10487 10487 10487 10487 10486 10486 10486 10486 10485 10484 10484 10484 10484 10484 10484 10484 10484 10484 10484 10484 10485 10485
10510 10509 10508 10508 10507 10505 10503 10503 10501 10500 10499 10498 10497 10496 10495 10494 10493 10492 10491 10491 10489 10489 10488 10488 10488 10488 10487 10487 10486 10485 10484 10484 10483 10481 10480 10479 10478 10477 10476 10476 10476 10476 10475 10476 10476 10476 10476 10477 10477 10478 10478 10478 10479 10479 10479 10479 10480 10480 10480 10480 10480 10480 10480 10480 10480 10480 10480 10480 10479 10479 10479 10479 10479 10478 10478 10478 10478 10478 10478 10479 10478 10478 10478 10479 10479 10479
10502 10501 10500 10499 10498 10497 10495 10494 10493 10491 10491 10489 10488 10488 10487 10486 10485 10484 10483 10482 10481 10480 10479 10479 10479 10479 10478 10478 10478 10477 10476 10475 10474 10473 10472 10471 10470 10469 10469 10469 10469 10469 10469 10469 10469 10469 10469 10469 10470 10470 10470 10471 10471 10471 10472 10472 10473 10473 10473 10473 10473 10473 10473 10473 10473 10473 10473 10473 10473 10473 10473 10472 10472 10472 10473 10472 10471 10471 10471 10472 10473 10473 10473 10473 10473 10474
10494 10493 10492 10491 10489 10488 10487 10486 10484 10483 10482 10481 10479 10479 10478 10477 10476 10476 10474 10473 10473 10472 10471 10471 10470 10470 10469 10469 10468 10468 10468 10467 10466 10465 10464 10464 10463 10463 10463 10463 10463 10463 10463 10463 10463 10463 10463 10463 10463 10463 10463 10463 10463 10464 10464 10464 10465 10465 10466 10466 10466 10465 10465 10465 10465 10465 10465 10465 10465 10465 10466 10466 10465 10465 10466 10466 10465 10465 10464 10465 10466 10466 10466 10466 10467 10468
10487 10485 10484 10483 10481 10479 10479 10477 10476 10474 10473 10472 10471 10470 10469 10468 10467 10466 10466 10465 10464 10464 10464 10463 10463 10462 10461 10461 10460 10460 10459 10459 10459 10459 10458 10458 10457 10457 10456 10456 10456 10456 10456 10456 10456 10456 10456 10456 10456 10456 10456 10456 10456 10456 10456 10457 10458 10458 10458 10458 10458 10458 10458 10458 10458 10458 10458 10458 10458 10458 10458 10459 10458 10458 10459 10459 10459 10459 10458 10459 10459 10459 10459 10460 10461 10461
10479 10478 10476 10474 10473 10472 10471 10468 10466 10466 10465 10464 10463 10462 10461 10460 10459 10458 10458 10458 10457 10457 10457 10456 10455 10454 10454 10453 10453 10453 10453 10453 10453 10452 10451 10451 10451 10450 10450 10449 10449 10449 10449 10449 10449 10449 10449 10449 10449 10449 10449 10448 10448 10448 10448 10449 10449 10450 10451 10451 10451 10451 10451 10451 10451 10451 10451 10451 10451 10451 10451 10452 10452 10452 10452 10453 10453 10453 10453 10453 10453 10453 10453 10454 10454 10455
10471 10470 10469 10467 10466 10464 10464 10461 10459 10458 10457 10456 10455 10454 10454 10453 10452 10451 10451 10450 10449 10449 10449 10449 10448 10448 10446 10446 10446 10446 10446 10445 10445 10445 10445 10444 10444 10443 10443 10443 10442 10442 10441 10441 10441 10441 10441 10441 10441 10441 10441 10441 10441 10441 10440 10441 10441 10442 10443 10444 10444 10444 10444 10444 10443 10443 10443 10444 10444 10444 10444 10445 10445 10446 10446 10446 10446 10446 10447 10447 10446 10446 10447 10448 10448 10449
10463 10461 10460 10459 10458 10456 10456 10454 10452 10451 10450 10449 10448 10446 10446 10445 10445 10444 10444 10442 10441 10441 10441 10441 10441 10441 10440 10439 10438 10438 10438 10438 10437 10437 10437 10437 10437 10436 10436 10436 10435 10435 10434 10434 10434 10433 10433 10433 10433 10433 10433 10433 10433 10433 10433 10433 10433 10434 10434 10436 10436 10437 10437 10437 10437 10436 10436 10437 10437 10437 10438 10438 10438 10439 10439 10439 10439 10440 10440 10441 10441 10440 10441 10441 10442 10443
10454 10453 10451 10450 10449 10447 10446 10444 10443 10442 10441 10441 10439 10438 10436 10436 10436 10437 10436 10434 10434 10433 10433 10432 10432 10433 10433 10431 10431 10430 10430 10430 10429 10429 10429 10429 10429 10429 10429 10429 10429 10428 10428 10427 10426 10426 10425 10425 10425 10425 10425 10425 10425 10425 10425 10424 10425 10425 10426 10427 10428 10429 10430 10430 10430 10430 10429 10429 10429 10430 10431 10431 10431 10431 10432 10433 10433 10433 10434 10434 10434 10434 10434 10434 10435 10436
10446 10444 10443 10442 10440 10438 10437 10435 10434 10433 10432 10431 10430 10429 10428 10427 10428 10428 10428 10427 10426 10426 10425 10424 10424 10424 10424 10424 10424 10423 10423 10423 10423 10423 10423 10423 10422 10422 10423 10422 10421 10421 10421 10420 10419 10418 10418 10417 10417 10417 10417 10417 10417 10417 10417 10416 10416 10417 10418 10418 10419 10421 10422 10423 10423 10423 10423 10423 10423 10423 10423 10423 10424 10424 10425 10425 10426 10426 10427 10428 10428 10428 10428 10429 10429 10430
10438 10436 10435 10434 10432 10430 10429 10428 10426 10425 10423 10423 10422 10421 10420 10419 10419 10419 10419 10419 10418 10418 10419 10419 10418 10417 10417 10417 10416 10416 10416 10416 10416 10416 10416 10415 10414 10415 10415 10414 10414 10413 10414 10413 10412 10411 10410 10410 10409 10409 10408 10409 10409 10408 10408 10408 10408 10408 10409 10409 10410 10411 10413 10414 10415 10416 10416 10416 10415 10415 10415 10416 10416 10417 10418 10418 10419 10419 10420 10421 10421 10421 10422 10423 10423 10424
10429 10429 10428 10426 10424 10423 10421 10420 10419 10418 10416 10415 10414 10414 10413 10413 10412 10412 10412 10411 10411 10411 10412 10412 10411 10410 10409 10409 10409 10409 10409 10409 10408 10408 10408 10407 10407 10407 10408 10407 10406 10405 10406 10406 10404 10403 10403 10403 10402 10401 10401 10401 10400 10400 10400 10400 10400 10400 10400 10401 10401 10402 10403 10404 10406 10408 10408 10408 10408 10408 10408 10408 10409 10409 10410 10411 10411 10412 10413 10413 10414 10415 10415 10416 10416 10417
10423 10421 10420 10419 10417 10416 10414 10413 10412 10411 10409 10408 10408 10407 10406 10405 10404 10404 10404 10404 10403 10403 10404 10404 10403 10403 10401 10401 10401 10401 10401 10401 10400 10400 10400 10399 10398 10398 10399 10400 10398 10397 10398 10398 10397 10396 10394 10395 10394 10394 10393 10393 10393 10392 10392 10392 10392 10392 10392 10392 10392 10393 10393 10394 10396 10398 10399 10401 10401 10401 10401 10400 10401 10401 10402 10403 10404 10404 10405 10406 10406 10408 10408 10409 10409 10411
10415 10414 10413 10411 10409 10408 10406 10406 10404 10403 10401 10401 10400 10399 10398 10398 10396 10396 10396 10395 10395 10395 10395 10395 10395 10395 10393 10392 10391 10392 10393 10393 10392 10391 10392 10392 10391 10389 10391 10392 10391 10389 10389 10390 10389 10388 10387 10387 10386 10386 10386 10385 10384 10384 10384 10384 10384 10384 10383 10383 10383 10383 10384 10384 10386 10388 10390 10391 10393 10393 10393 10393 10393 10393 10394 10395 10396 10397 10398 10398 10399 10399 10401 10402 10403 10403
10408 10406 10406 10404 10402 10400 10399 10398 10396 10394 10393 10393 10391 10390 10389 10389 10388 10388 10387 10386 10386 10386 10386 10386 10386 10387 10386 10384 10382 10381 10383 10385 10383 10381 10382 10383 10382 10381 10382 10383 10383 10381 10381 10381 10381 10380 10379 10379 10378 10378 10378 10378 10377 10376 10376 10376 10376 10375 10375 10375 10374 10374 10374 10375 10376 10377 10379 10381 10383 10384 10386 10386 10386 10386 10386 10387 10388 10389 10389 10390 10391 10392 10393 10394 10395 10396
10400 10399 10398 10396 10394 10393 10391 10390 10388 10386 10385 10384 10383 10381 10381 10379 10378 10378 10378 10376 10376 10377 10377 10377 10377 10377 10377 10376 10374 10372 10373 10376 10374 10372 10372 10373 10373 10373 10373 10374 10374 10373 10372 10373 10373 10371 10371 10370 10370 10369 10370 10370 10369 10369 10368 10368 10368 10368 10367 10367 10366 10366 10366 10366 10366 10367 10368 10370 10373 10374 10376 10378 10378 10378 10378 10378 10379 10380 10381 10382 10383 10384 10384 10386 10387 10388
10392 10391 10389 10388 10387 10385 10383 10381 10379 10378 10377 10375 10374 10373 10372 10369 10369 10368 10368 10366 10366 10367 10367 10368 10368 10367 10367 10367 10366 10364 10364 10366 10365 10363 10361 10363 10364 10364 10364 10365 10364 10363 10362 10363 10363 10363 10363 10361 10361 10361 10362 10362 10361 10361 10361 10360 10360 10359 10359 10359 10359 10358 10358 10357 10357 10357 10358 10359 10361 10364 10366 10368 10369 10369 10369 10369 10370 10371 10372 10373 10374 10375 10376 10377 10378 10379
10384 10382 10380 10379 10378 10377 10374 10371 10369 10369 10368 10366 10364 10363 10361 10360 10359 10359 10357 10356 10357 10357 10357 10357 10358 10357 10357 10358 10356 10354 10354 10356 10355 10353 10351 10353 10355 10355 10354 10355 10355 10354 10352 10353 10353 10354 10353 10353 10352 10352 10353 10353 10353 10353 10352 10352 10352 10351 10351 10351 10351 10351 10350 10349 10349 10348 10348 10349 10350 10352 10354 10357 10359 10360 10361 10361 10361 10362 10363 10364 10365 10366 10367 10368 10369 10370
10377 10374 10371 10370 10369 10368 10364 10362 10360 10359 10357 10356 10354 10353 10351 10350 10349 10349 10347 10347 10347 10347 10346 10346 10346 10347 10348 10348 10346 10344 10344 10345 10344 10343 10341 10344 10344 10344 10344 10345 10346 10344 10341 10341 10343 10343 10343 10343 10342 10343 10344 10344 10344 10343 10343 10343 10343 10343 10343 10343 10343 10343 10342 10342 10341 10340 10340 10339 10340 10341 10343 10345 10348 10349 10351 10352 10353 10353 10353 10354 10356 10357 10358 10359 10360 10361
10368 10366 10364 10362 10360 10358 10356 10353 10351 10349 10348 10346 10344 10343 10340 10340 10340 10339 10338 10337 10338 10337 10336 10336 10336 10337 10338 10337 10336 10334 10333 10333 10333 10333 10333 10334 10334 10333 10333 10336 10336 10333 10330 10330 10331 10333 10333 10331 10331 10333 10334 10335 10334 10334 10333 10333 10333 10333 10333 10333 10333 10334 10334 10334 10333 10333 10332 10331 10331 10331 10333 10334 10336 10339 10341 10342 10343 10344 10344 10345 10346 10347 10348 10350 10351 10353
10359 10358 10356 10354 10352 10349 10348 10345 10343 10340 10338 10336 10334 10333 10331 10331 10331 10330 10329 10328 10328 10327 10326 10326 10326 10326 10326 10325 10325 10324 10323 10321 10321 10323 10323 10323 10322 10322 10323 10325 10324 10322 10319 10318 10319 10322 10322 10321 10320 10321 10324 10325 10324 10323 10323 10323 10322 10322 10323 10323 10323 10324 10324 10325 10325 10325 10324 10324 10323 10323 10323 10324 10326 10328 10330 10332 10333 10334 10335 10336 10336 10337 10338 10340 10342 10344
10350 10349 10347 10344 10343 10341 10339 10336 10333 10331 10328 10326 10324 10322 10321 10321 10320 10320 10319 10319 10318 10317 10316 10316 10316 10315 10314 10314 10314 10313 10310 10308 10309 10311 10311 10309 10309 10310 10311 10313 10313 10311 10308 10305 10307 10310 10312 10310 10309 10310 10313 10314 10313 10311 10311 10311 10311 10311 10311 10312 10313 10313 10314 10314 10316 10316 10316 10316 10316 10315 10314 10315 10316 10318 10319 10321 10323 10324 10326 10326 10327 10328 10329 10330 10332 10334
10340 10339 10337 10335 10333 10331 10329 10326 10323 10321 10318 10316 10313 10311 10310 10310 10310 10310 10309 10308 10306 10306 10306 10306 10304 10303 10303 10303 10303 10301 10298 10296 10296 10298 10298 10297 10296 10297 10297 10298 10299 10300 10298 10294 10294 10298 10301 10300 10298 10298 10301 10302 10301 10300 10299 10300 10300 10299 10300 10300 10301 10301 10301 10303 10304 10306 10306 10307 10307 10307 10306 10306 10306 10307 10309 10311 10313 10314 10316 10317 10318 10318 10319 10320 10322 10324
10330 10328 10326 10324 10323 10321 10318 10316 10313 10310 10307 10304 10302 10300 10299 10299 10299 10299 10297 10294 10293 10294 10296 10294 10292 10290 10291 10292 10291 10289 10286 10285 10284 10284 10284 10284 10284 10284 10281 10281 10284 10288 10287 10283 10281 10284 10289 10289 10288 10286 10288 10289 10289 10288 10288 10288 10288 10288 10288 10289 10289 10289 10289 10290 10291 10293 10294 10296 10297 10297 10298 10297 10297 10297 10298 10299 10302 10304 10306 10307 10308 10308 10309 10311 10313 10314
10319 10317 10316 10314 10312 10309 10307 10304 10302 10299 10296 10293 10290 10288 10287 10287 10288 10287 10284 10281 10281 10283 10284 10282 10279 10278 10279 10280 10278 10276 10276 10276 10274 10271 10270 10271 10273 10271 10266 10266 10270 10275 10274 10270 10269 10271 10276 10278 10276 10275 10275 10276 10276 10276 10274 10275 10276 10276 10277 10277 10277 10276 10276 10276 10278 10279 10281 10283 10284 10286 10286 10287 10286 10286 10287 10288 10289 10292 10294 10296 10297 10298 10299 10301 10302 10304
10307 10305 10304 10302 10300 10298 10296 10294 10291 10288 10284 10281 10278 10276 10274 10273 10274 10274 10273 10270 10271 10272 10273 10269 10267 10266 10268 10268 10266 10265 10265 10264 10262 10259 10259 10259 10258 10256 10251 10253 10258 10261 10260 10256 10256 10259 10262 10263 10263 10263 10264 10263 10262 10261 10261 10262 10263 10263 10264 10264 10264 10264 10263 10263 10263 10264 10266 10268 10269 10272 10273 10274 10275 10275 10276 10276 10278 10279 10281 10284 10286 10288 10289 10290 10292 10294
10294 10293 10291 10289 10287 10285 10284 10281 10279 10275 10272 10269 10266 10263 10259 10258 10259 10259 10259 10258 10259 10259 10259 10256 10255 10254 10256 10256 10256 10254 10253 10251 10249 10248 10248 10247 10244 10239 10236 10239 10244 10247 10244 10242 10244 10247 10247 10246 10248 10251 10253 10251 10248 10246 10247 10248 10249 10249 10249 10251 10251 10251 10249 10249 10249 10249 10251 10253 10254 10257 10259 10261 10262 10263 10263 10264 10265 10266 10268 10271 10273 10276 10277 10279 10281 10284
10283 10281 10279 10276 10273 10271 10270 10268 10265 10263 10259 10257 10253 10249 10246 10244 10243 10243 10244 10244 10244 10244 10243 10242 10241 10241 10241 10243 10244 10243 10239 10236 10234 10234 10235 10234 10229 10224 10221 10225 10230 10232 10229 10227 10230 10234 10233 10229 10230 10235 10240 10239 10234 10231 10231 10234 10236 10236 10235 10235 10236 10236 10235 10234 10234 10235 10236 10237 10239 10242 10244 10246 10248 10249 10250 10251 10253 10254 10255 10257 10259 10262 10264 10267 10269 10273
10273 10270 10267 10264 10261 10259 10256 10254 10251 10249 10246 10244 10241 10237 10234 10231 10229 10228 10228 10228 10228 10227 10227 10227 10226 10225 10225 10226 10227 10227 10226 10222 10220 10219 10219 10218 10216 10211 10207 10209 10214 10217 10214 10211 10214 10219 10221 10217 10215 10217 10222 10224 10221 10217 10215 10217 10221 10221 10220 10219 10219 10219 10219 10219 10219 10221 10222 10224 10225 10227 10229 10231 10233 10235 10236 10238 10239 10240 10241 10244 10246 10249 10251 10254 10258 10260
10262 10259 10256 10253 10249 10247 10244 10241 10239 10236 10234 10231 10228 10225 10221 10219 10216 10214 10214 10213 10213 10212 10212 10211 10210 10209 10209 10209 10210 10211 10211 10209 10206 10204 10202 10202 10201 10197 10194 10194 10198 10201 10200 10197 10197 10201 10205 10204 10203 10203 10205 10207 10207 10204 10202 10202 10204 10205 10204 10204 10203 10203 10202 10204 10206 10207 10209 10209 10211 10213 10216 10217 10219 10221 10222 10224 10226 10227 10228 10230 10232 10235 10238 10242 10245 10248
10250 10247 10244 10240 10237 10234 10231 10228 10226 10223 10221 10219 10216 10212 10209 10206 10204 10202 10200 10199 10198 10197 10197 10196 10196 10194 10194 10192 10192 10193 10193 10192 10191 10189 10187 10186 10185 10182 10180 10180 10182 10184 10185 10184 10183 10184 10187 10189 10190 10191 10191 10191 10192 10191 10190 10189 10188 10187 10187 10188 10188 10188 10187 10189 10191 10193 10195 10196 10197 10199 10202 10204 10205 10207 10209 10211 10212 10213 10215 10217 10219 10222 10225 10229 10233 10237
10237 10234 10231 10227 10224 10222 10219 10215 10212 10210 10208 10206 10202 10200 10197 10194 10192 10189 10187 10186 10185 10184 10184 10182 10181 10181 10181 10180 10179 10177 10177 10176 10174 10174 10173 10172 10170 10167 10166 10166 10167 10169 10170 10170 10170 10170 10170 10172 10175 10177 10177 10178 10179 10178 10176 10175 10174 10172 10172 10172 10172 10173 10174 10175 10177 10179 10181 10182 10184 10186 10187 10190 10192 10194 10196 10197 10199 10200 10202 10204 10206 10209 10212 10217 10221 10225
10225 10221 10217 10214 10211 10209 10206 10202 10199 10196 10194 10192 10189 10186 10184 10182 10180 10177 10175 10174 10172 10171 10169 10168 10167 10167 10167 10167 10166 10165 10163 10161 10159 10158 10157 10157 10156 10154 10152 10152 10154 10155 10156 10157 10157 10156 10156 10157 10161 10164 10165 10166 10166 10164 10162 10161 10159 10159 10158 10157 10157 10159 10161 10162 10164 10166 10167 10169 10170 10172 10174 10176 10179 10181 10182 10184 10186 10187 10189 10191 10194 10197 10200 10204 10209 10213
10212 10208 10204 10200 10197 10195 10193 10189 10186 10183 10181 10179 10177 10174 10171 10169 10167 10165 10163 10161 10159 10157 10156 10155 10154 10153 10153 10153 10152 10152 10150 10148 10146 10144 10142 10141 10141 10141 10140 10139 10141 10142 10143 10144 10144 10144 10143 10144 10147 10151 10152 10152 10152 10151 10149 10146 10146 10146 10145 10144 10144 10145 10147 10149 10150 10151 10154 10156 10157 10158 10161 10163 10166 10167 10169 10171 10173 10175 10177 10179 10182 10185 10188 10192 10197 10201
10197 10194 10191 10187 10184 10181 10179 10176 10173 10170 10167 10166 10164 10161 10159 10156 10154 10152 10151 10149 10147 10146 10144 10143 10142 10141 10140 10139 10139 10137 10136 10135 10132 10130 10128 10127 10126 10126 10126 10127 10127 10128 10129 10130 10131 10131 10131 10132 10134 10136 10136 10137 10137 10137 10136 10134 10132 10131 10131 10131 10131 10132 10134 10135 10136 10138 10140 10142 10144 10146 10148 10151 10152 10155 10157 10159 10161 10164 10166 10168 10170 10173 10176 10181 10184 10189
10184 10181 10177 10174 10171 10168 10166 10163 10160 10157 10155 10153 10151 10149 10147 10144 10142 10141 10139 10137 10136 10134 10132 10131 10130 10129 10127 10126 10125 10123 10122 10121 10119 10117 10116 10114 10114 10114 10114 10115 10115 10116 10116 10117 10117 10119 10119 10121 10121 10122 10122 10122 10122 10122 10122 10121 10120 10119 10117 10117 10119 10120 10121 10121 10123 10125 10128 10130 10132 10134 10136 10138 10141 10142 10145 10147 10149 10152 10154 10156 10159 10162 10165 10169 10173 10177
10171 10168 10164 10161 10157 10155 10153 10151 10148 10145 10142 10141 10139 10137 10134 10132 10131 10129 10127 10125 10124 10122 10121 10119 10117 10116 10115 10113 10111 10109 10108 10106 10105 10104 10104 10103 10102 10102 10103 10104 10104 10104 10104 10104 10105 10106 10107 10108 10109 10109 10110 10110 10109 10109 10109 10108 10107 10107 10106 10106 10106 10106 10107 10109 10111 10114 10116 10118 10121 10122 10124 10126 10129 10131 10134 10136 10138 10141 10143 10145 10147 10151 10154 10158 10162 10166
10158 10155 10151 10148 10145 10143 10141 10139 10136 10133 10131 10129 10127 10124 10122 10120 10119 10117 10116 10114 10112 10110 10109 10107 10106 10104 10102 10101 10098 10097 10095 10094 10093 10092 10092 10092 10092 10091 10092 10092 10092 10092 10092 10093 10094 10094 10096 10096 10097 10097 10097 10097 10097 10097 10096 10096 10095 10095 10095 10095 10094 10094 10096 10098 10100 10102 10105 10107 10110 10112 10114 10116 10118 10121 10122 10125 10127 10130 10132 10135 10138 10141 10144 10148 10152 10156
10146 10142 10139 10136 10134 10131 10129 10126 10124 10122 10119 10117 10115 10113 10111 10109 10107 10106 10104 10102 10100 10098 10096 10095 10094 10092 10091 10088 10086 10084 10084 10082 10082 10082 10081 10081 10081 10081 10081 10081 10081 10082 10082 10083 10083 10083 10084 10085 10085 10086 10086 10086 10086 10086 10085 10084 10084 10083 10084 10083 10083 10084 10086 10087 10089 10092 10095 10098 10101 10102 10104 10106 10107 10110 10112 10115 10118 10121 10123 10126 10129 10131 10134 10138 10142 10146
10134 10131 10127 10125 10122 10120 10117 10115 10112 10110 10108 10106 10104 10102 10099 10098 10097 10096 10094 10091 10089 10087 10085 10084 10082 10081 10079 10076 10074 10073 10072 10072 10072 10071 10071 10071 10070 10070 10070 10071 10071 10071 10072 10073 10073 10072 10073 10074 10074 10074 10074 10075 10076 10075 10074 10073 10072 10072 10072 10072 10074 10075 10076 10076 10079 10083 10086 10089 10091 10093 10094 10096 10097 10101 10103 10106 10109 10111 10114 10117 10119 10122 10126 10129 10133 10137
10122 10119 10116 10114 10111 10109 10106 10104 10101 10099 10097 10095 10093 10091 10089 10087 10086 10085 10083 10081 10078 10076 10074 10073 10072 10071 10069 10066 10064 10062 10062 10062 10061 10061 10061 10061 10060 10060 10060 10061 10061 10061 10062 10063 10063 10062 10063 10064 10064 10064 10064 10065 10065 10065 10064 10063 10062 10061 10062 10062 10064 10066 10067 10067 10070 10074 10077 10079 10082 10084 10085 10087 10089 10092 10095 10097 10100 10102 10105 10108 10111 10114 10117 10121 10124 10129
10111 10108 10105 10102 10100 10097 10095 10092 10091 10089 10087 10085 10083 10081 10079 10078 10076 10075 10073 10071 10069 10067 10065 10063 10062 10060 10058 10056 10054 10053 10052 10051 10051 10051 10051 10051 10051 10051 10051 10051 10051 10052 10052 10053 10053 10054 10054 10054 10054 10054 10054 10055 10055 10054 10054 10053 10052 10052 10052 10053 10056 10057 10059 10060 10062 10064 10067 10070 10072 10075 10076 10079 10081 10084 10087 10089 10092 10094 10097 10100 10102 10106 10109 10112 10117 10121
10101 10097 10095 10092 10089 10087 10085 10082 10081 10079 10077 10075 10073 10072 10070 10069 10067 10065 10064 10061 10059 10057 10055 10053 10052 10050 10047 10046 10045 10044 10043 10042 10042 10041 10041 10041 10041 10042 10042 10042 10042 10042 10043 10044 10044 10044 10045 10045 10044 10045 10046 10046 10046 10045 10044 10044 10043 10043 10043 10044 10047 10049 10051 10052 10054 10056 10058 10061 10064 10066 10069 10071 10074 10077 10079 10081 10084 10086 10089 10092 10095 10098 10102 10105 10109 10112
10091 10088 10085 10082 10080 10077 10076 10073 10071 10069 10067 10066 10064 10062 10061 10059 10057 10056 10054 10052 10050 10048 10046 10044 10042 10041 10039 10037 10036 10036 10034 10034 10032 10032 10032 10032 10032 10033 10033 10034 10034 10034 10035 10035 10036 10036 10036 10036 10036 10037 10037 10037 10036 10036 10035 10034 10034 10034 10035 10036 10039 10041 10042 10044 10046 10047 10050 10053 10056 10059 10062 10064 10067 10069 10071 10074 10076 10079 10082 10085 10088 10091 10094 10098 10102 10106
10082 10079 10076 10074 10071 10069 10066 10064 10062 10061 10059 10057 10055 10053 10052 10051 10049 10047 10045 10043 10041 10039 10037 10035 10034 10032 10031 10029 10028 10027 10026 10025 10024 10024 10024 10024 10024 10024 10025 10025 10026 10026 10026 10027 10027 10027 10027 10028 10028 10028 10028 10028 10027 10027 10026 10026 10027 10027 10027 10029 10031 10032 10034 10036 10038 10040 10042 10045 10048 10051 10055 10058 10061 10062 10064 10067 10069 10071 10074 10077 10081 10084 10087 10091 10095 10098
10073 10070 10067 10065 10062 10060 10058 10056 10054 10052 10050 10048 10046 10045 10043 10042 10041 10039 10036 10034 10032 10031 10029 10027 10026 10024 10022 10021 10021 10019 10019 10017 10016 10016 10016 10016 10016 10017 10017 10017 10017 10018 10018 10018 10019 10019 10019 10019 10019 10019 10019 10019 10019 10019 10019 10019 10019 10020 10021 10022 10023 10025 10027 10029 10031 10033 10036 10039 10042 10045 10048 10051 10054 10056 10058 10060 10062 10064 10067 10071 10074 10077 10081 10084 10088 10091
10064 10062 10059 10057 10054 10052 10049 10047 10046 10044 10042 10040 10038 10036 10035 10034 10032 10030 10028 10026 10024 10022 10021 10019 10018 10017 10015 10014 10013 10012 10011 10010 10009 10009 10008 10009 10009 10009 10009 10009 10010 10010 10010 10011 10011 10011 10011 10011 10011 10011 10011 10011 10011 10012 10012 10012 10013 10014 10014 10015 10016 10018 10019 10021 10024 10026 10029 10032 10036 10039 10042 10045 10047 10049 10051 10053 10056 10057 10061 10064 10068 10071 10075 10078 10081 10085
10056 10054 10051 10049 10046 10044 10042 10040 10037 10036 10034 10032 10031 10029 10027 10026 10024 10022 10021 10019 10017 10015 10014 10012 10011 10009 10008 10007 10006 10005 10004 10004 10002 10002 10001 10001 10001 10001 10001 10002 10002 10002 10002 10003 10003 10003 10003 10002 10002 10002 10003 10004 10005 10006 10006 10007 10007 10007 10008 10009 10010 10011 10013 10015 10017 10020 10023 10026 10029 10032 10036 10039 10041 10043 10045 10047 10049 10052 10055 10059 10062 10065 10069 10072 10075 10078